GW5365 Weather Reports


Display with metric or nautical units.
time (UTC)temp
F
wind
direction
speed
MPH
gust
MPH
rain 1hr
in
rain 24hr
in
rain mn
in
humidity
%
barometer
mb
20260504230641 60 45 1.0 1.0 0.00 0.00 0.00 62 1015.0
20260504224640 61 270 6.0 6.0 0.00 0.00 0.00 61 1014.9
20260504222640 61 248 6.0 6.0 0.00 0.00 0.00 58 1014.8
20260504221641 61 292 13.0 13.0 0.00 0.00 0.00 57 1014.9
20260504220640 61 270 10.0 10.0 0.00 0.00 0.00 58 1014.9
20260504215641 62 270 10.0 10.0 0.00 0.00 0.00 55 1014.9
20260504214640 63 270 13.0 13.0 0.00 0.00 0.00 52 1014.8
20260504213641 64 248 17.0 17.0 0.00 0.00 0.00 48 1014.9
20260504212640 64 225 7.0 7.0 0.00 0.00 0.00 41 1014.9
20260504210641 65 248 8.0 8.0 0.00 0.00 0.00 40 1014.9
20260504205640 65 248 9.0 9.0 0.00 0.00 0.00 40 1014.9
20260504204641 65 292 8.0 8.0 0.00 0.00 0.00 41 1014.7
20260504203640 65 270 7.0 7.0 0.00 0.00 0.00 41 1014.6
20260504202640 65 248 8.0 8.0 0.00 0.00 0.00 40 1014.5
20260504201641 65 248 9.0 9.0 0.00 0.00 0.00 40 1014.4
20260504200641 65 248 10.0 10.0 0.00 0.00 0.00 41 1014.2
20260504195639 65 248 10.0 10.0 0.00 0.00 0.00 41 1014.1
20260504194640 65 248 6.0 6.0 0.00 0.00 0.00 42 1014.0
20260504193642 65 270 6.0 6.0 0.00 0.00 0.00 42 1014.0
20260504192641 65 270 7.0 7.0 0.00 0.00 0.00 42 1013.9
20260504190640 66 225 6.0 6.0 0.00 0.00 0.00 42 1013.7
20260504185639 67 270 7.0 7.0 0.00 0.00 0.00 41 1013.6
20260504184640 68 0 7.0 7.0 0.00 0.00 0.00 42 1013.7
20260504183641 68 248 6.0 6.0 0.00 0.00 0.00 41 1013.6
20260504182640 68 270 9.0 9.0 0.00 0.00 0.00 41 1013.5
20260504181640 69 315 11.0 11.0 0.00 0.00 0.00 41 1013.4
20260504175641 68 270 6.0 6.0 0.00 0.00 0.00 42 1013.4
20260504173641 70 270 10.0 10.0 0.00 0.00 0.00 38 1013.3
20260504171640 71 270 8.0 8.0 0.00 0.00 0.00 37 1013.4
20260504170641 70 248 6.0 6.0 0.00 0.00 0.00 38 1013.3
20260504150640 70 292 6.0 6.0 0.00 0.00 0.00 42 1013.4
20260504140641 69 270 11.0 11.0 0.00 0.00 0.00 45 1013.8
20260504130640 67 248 18.0 18.0 0.00 0.00 0.00 47 1014.0
20260504110640 64 270 9.0 9.0 0.00 0.00 0.00 55 1015.0
20260504080641 58 112 3.0 3.0 0.00 0.00 0.00 73 1015.1
20260504050641 55 112 5.0 5.0 0.00 0.00 0.00 79 1014.0
20260504045641 56 112 5.0 5.0 0.00 0.00 0.00 79 1013.9
20260504043641 57 270 1.0 1.0 0.00 0.00 0.00 76 1013.8
20260504042640 57 315 4.0 4.0 0.00 0.00 0.00 75 1013.8
20260504041640 57 270 5.0 5.0 0.00 0.00 0.00 74 1013.7
20260504040641 57 270 5.0 5.0 0.00 0.00 0.00 74 1013.7
20260504035641 56 270 5.0 5.0 0.00 0.00 0.00 75 1013.8
20260504034641 57 90 0.0 0.0 0.00 0.00 0.00 76 1013.8
20260504033640 57 90 2.0 2.0 0.00 0.00 0.00 75 1014.0
20260504032640 57 90 2.0 2.0 0.00 0.00 0.00 75 1013.9
20260504031641 57 90 2.0 2.0 0.00 0.00 0.00 75 1014.0
20260504030640 57 90 0.0 0.0 0.00 0.00 0.00 75 1014.0
20260504025640 58 90 2.0 2.0 0.00 0.00 0.00 74 1014.1
20260504023640 58 90 2.0 2.0 0.00 0.00 0.00 73 1014.0
20260504021640 58 90 2.0 2.0 0.00 0.00 0.00 72 1014.1
20260504014641 58 112 3.0 3.0 0.00 0.00 0.00 69 1014.2
20260504012640 59 112 2.0 2.0 0.00 0.00 0.00 67 1014.3
20260504011640 59 112 0.0 0.0 0.00 0.00 0.00 66 1014.4
20260504010641 60 112 1.0 1.0 0.00 0.00 0.00 66 1014.5
20260504005640 60 112 2.0 2.0 0.00 0.00 0.00 64 1014.5
20260504004640 60 112 4.0 4.0 0.00 0.00 0.00 65 1014.7
20260504003640 60 112 4.0 4.0 0.00 0.00 0.00 67 1014.6
20260504002640 61 68 5.0 5.0 0.00 0.00 0.00 64 1014.6
20260504000641 61 45 4.0 4.0 0.00 0.00 0.00 63 1014.8
20260503235641 61 292 2.0 2.0 0.00 0.00 0.00 64 1014.9
20260503234640 61 68 0.0 0.0 0.00 0.00 0.00 63 1014.9
20260503233641 62 68 2.0 2.0 0.00 0.00 0.00 63 1014.9
20260503232641 62 68 3.0 3.0 0.00 0.00 0.00 62 1015.0
20260503231640 62 68 1.0 1.0 0.00 0.00 0.00 60 1014.9